sat.trackr.live / text

‹ back to catalog

STARLINK-35218

NORAD 66340 · 2025-253X

PAYLOAD ACTIVE UNKNOWN

§ Identity

Operator
Country
US
Launch date
2025-11-06
Launch site
AFETR
Launch vehicle
Mass (kg)
RCS (m²)

Purposes: comms

External: N2YO · Heavens-Above · Gunter

§ Orbital elements

Epoch: 2026-09-20T03:58:19.219008Z

Period
94.27 min
Inclination
42.9996°
Eccentricity
0.0001320
Mean motion
15.27591831 rev/d
Perigee alt
482.1 km
Apogee alt
483.9 km
Semi-major
6,861.2 km
B*
4.2397e-4
RAAN
194.4969°
Arg perigee
272.0797°
Mean anomaly
87.9904°
Rev number
4,998

§ Raw data

STARLINK-352181 66340U 25253X   26263.16550022  .00011427  00000+0  42397-3 0  99982 66340  42.9996 194.4969 0001320 272.0797  87.9904 15.27591831 49981

JSON: /api/v1/satellites/66340 · /tle

For live sub-satellite position, see the globe view (requires WebGL).

§ Visibility from observer

Set your observer location to see the next 7 days of passes ≥ 10°. The values pass through the URL so the page stays shareable.

No JS? Fill the form by hand. The geolocation button needs JavaScript.